When you browse on this site, cookies collect data to enhance your experience and personalize the content and advertising you see.
Visit our Privacy Policy to learn more. By continuing to use the site, you agree to this use of cookies and data.
  • In Hungary
  • List of Countries
  • For 7 days
  • Water Temperature
  • Satellite Maps
  • Weather Map
  • News
  • Weather Widgets
  • user-avatar
    Login

    Hourly Weather Zdzieslawice

    Today, 20 May, Monday

    Time Temperature Precipitation Wind Pressure Humidity
    00:00 +14°C° 0 mm 2 mps 730 mmHg 91%
    01:00 +14°C° 0 mm 2 mps 729 mmHg 91%
    02:00 +14°C° 0 mm 2 mps 729 mmHg 92%
    03:00 +14°C° 0 mm 2 mps 729 mmHg 92%
    04:00 +13°C° 0 mm 2 mps 728 mmHg 93%
    05:00 +14°C° 0 mm 3 mps 728 mmHg 89%
    06:00 +15°C° 0 mm 4 mps 729 mmHg 85%
    07:00 +19°C° 0 mm 4 mps 729 mmHg 78%
    08:00 +20°C° 0 mm 4 mps 729 mmHg 71%
    09:00 +21°C° 0 mm 5 mps 729 mmHg 65%
    10:00 +23°C° 0 mm 5 mps 730 mmHg 59%
    11:00 +23°C° 0 mm 5 mps 730 mmHg 56%
    12:00 +23°C° 0 mm 4 mps 730 mmHg 53%
    13:00 +24°C° 0 mm 3 mps 731 mmHg 54%
    14:00 +24°C° 0 mm 3 mps 731 mmHg 55%
    15:00 +22°C° 0 mm 3 mps 731 mmHg 56%
    16:00 +22°C° 0 mm 3 mps 730 mmHg 57%
    17:00 +21°C° 0.1 mm 3 mps 730 mmHg 63%
    18:00 +19°C° 0.1 mm 2 mps 730 mmHg 69%
    19:00 +17°C° 0.1 mm 2 mps 730 mmHg 76%
    20:00 +16°C° 0 mm 2 mps 730 mmHg 78%
    21:00 +15°C° 0 mm 2 mps 730 mmHg 80%
    22:00 +14°C° 0 mm 2 mps 730 mmHg 82%
    23:00 +14°C° 0 mm 1 mps 730 mmHg 82%

    Tomorrow, 21 May, Tuesday

    Time Temperature Precipitation Wind Pressure Humidity
    00:00 +13°C° 0 mm 1 mps 730 mmHg 83%
    01:00 +12°C° 0 mm 1 mps 730 mmHg 84%
    02:00 +12°C° 0 mm 1 mps 730 mmHg 84%
    03:00 +12°C° 0 mm 1 mps 730 mmHg 85%
    04:00 +11°C° 0 mm 1 mps 730 mmHg 86%
    05:00 +13°C° 0 mm 1 mps 730 mmHg 82%
    06:00 +15°C° 0 mm 1 mps 730 mmHg 79%
    07:00 +16°C° 0 mm 1 mps 730 mmHg 75%
    08:00 +17°C° 0.2 mm 2 mps 730 mmHg 73%
    09:00 +18°C° 0.2 mm 2 mps 730 mmHg 71%
    10:00 +19°C° 0.2 mm 2 mps 730 mmHg 69%
    11:00 +19°C° 1.2 mm 2 mps 729 mmHg 71%
    12:00 +18°C° 1.2 mm 2 mps 729 mmHg 74%
    13:00 +18°C° 1.2 mm 2 mps 729 mmHg 76%
    14:00 +18°C° 1 mm 2 mps 729 mmHg 78%
    15:00 +18°C° 1 mm 2 mps 728 mmHg 80%
    16:00 +17°C° 1 mm 2 mps 728 mmHg 82%
    17:00 +17°C° 1.1 mm 3 mps 728 mmHg 84%
    18:00 +15°C° 1.1 mm 4 mps 728 mmHg 86%
    19:00 +15°C° 1.1 mm 5 mps 728 mmHg 87%
    20:00 +14°C° 1.2 mm 5 mps 728 mmHg 88%
    21:00 +14°C° 1.2 mm 6 mps 728 mmHg 89%
    22:00 +14°C° 1.2 mm 7 mps 728 mmHg 90%
    23:00 +14°C° 0.8 mm 7 mps 728 mmHg 91%

    Day after tomorrow, 22 May, Wednesday

    Time Temperature Precipitation Wind Pressure Humidity
    00:00 +14°C° 0.8 mm 7 mps 728 mmHg 91%
    01:00 +13°C° 0.8 mm 6 mps 728 mmHg 91%
    02:00 +13°C° 0.6 mm 6 mps 728 mmHg 91%
    03:00 +13°C° 0.6 mm 6 mps 728 mmHg 91%
    04:00 +13°C° 0.6 mm 6 mps 728 mmHg 91%
    05:00 +13°C° 0.5 mm 6 mps 729 mmHg 90%
    06:00 +14°C° 0.5 mm 6 mps 729 mmHg 90%
    07:00 +14°C° 0.5 mm 7 mps 729 mmHg 90%
    08:00 +14°C° 0.4 mm 6 mps 729 mmHg 90%
    09:00 +14°C° 0.4 mm 5 mps 730 mmHg 90%
    10:00 +14°C° 0.4 mm 4 mps 730 mmHg 90%
    11:00 +14°C° 1 mm 4 mps 730 mmHg 90%
    12:00 +14°C° 1 mm 3 mps 730 mmHg 90%
    13:00 +14°C° 1 mm 3 mps 730 mmHg 91%
    14:00 +15°C° 0.6 mm 4 mps 730 mmHg 89%
    15:00 +15°C° 0.6 mm 4 mps 730 mmHg 88%
    16:00 +15°C° 0.6 mm 4 mps 730 mmHg 86%
    17:00 +15°C° 1.4 mm 5 mps 731 mmHg 88%
    18:00 +15°C° 1.4 mm 6 mps 731 mmHg 89%
    19:00 +14°C° 1.4 mm 6 mps 731 mmHg 91%
    20:00 +14°C° 1.4 mm 6 mps 731 mmHg 91%
    21:00 +14°C° 1.4 mm 7 mps 732 mmHg 92%
    22:00 +14°C° 1.4 mm 7 mps 732 mmHg 92%
    23:00 +14°C° 0.5 mm 7 mps 733 mmHg 93%

    23 May, Thursday

    Time Temperature Precipitation Wind Pressure Humidity
    00:00 +14°C° 0.5 mm 6 mps 733 mmHg 93%
    01:00 +14°C° 0.5 mm 6 mps 733 mmHg 94%
    02:00 +13°C° 0.7 mm 6 mps 733 mmHg 94%
    03:00 +13°C° 0.7 mm 6 mps 734 mmHg 94%
    04:00 +13°C° 0.7 mm 5 mps 734 mmHg 95%
    05:00 +13°C° 1.3 mm 6 mps 734 mmHg 94%
    06:00 +13°C° 1.3 mm 6 mps 735 mmHg 94%
    07:00 +11°C° 1.3 mm 6 mps 735 mmHg 94%
    08:00 +11°C° 1.3 mm 6 mps 735 mmHg 94%
    09:00 +11°C° 1.3 mm 7 mps 736 mmHg 93%
    10:00 +10°C° 1.3 mm 7 mps 736 mmHg 93%
    11:00 +10°C° 0.2 mm 7 mps 737 mmHg 92%
    12:00 +10°C° 0.2 mm 7 mps 737 mmHg 92%
    13:00 +10°C° 0.2 mm 6 mps 737 mmHg 91%
    14:00 +10°C° 0.1 mm 6 mps 737 mmHg 90%
    15:00 +10°C° 0.1 mm 6 mps 738 mmHg 88%
    16:00 +10°C° 0.1 mm 6 mps 738 mmHg 87%
    17:00 +10°C° 0 mm 5 mps 738 mmHg 86%
    18:00 +10°C° 0 mm 4 mps 738 mmHg 85%
    19:00 +10°C° 0 mm 3 mps 738 mmHg 84%
    20:00 +10°C° 0 mm 3 mps 738 mmHg 84%
    21:00 +10°C° 0 mm 3 mps 738 mmHg 84%
    22:00 +10°C° 0 mm 3 mps 738 mmHg 84%
    23:00 +10°C° 0 mm 3 mps 738 mmHg 83%

    24 May, Friday

    Time Temperature Precipitation Wind Pressure Humidity
    00:00 +9°C° 0 mm 3 mps 738 mmHg 83%
    01:00 +9°C° 0 mm 3 mps 738 mmHg 83%
    02:00 +9°C° 0 mm 3 mps 738 mmHg 84%
    03:00 +9°C° 0 mm 3 mps 738 mmHg 85%
    04:00 +9°C° 0 mm 3 mps 737 mmHg 86%
    05:00 +10°C° 0 mm 3 mps 737 mmHg 82%
    06:00 +11°C° 0 mm 3 mps 737 mmHg 78%
    07:00 +12°C° 0 mm 3 mps 737 mmHg 74%
    08:00 +13°C° 0 mm 3 mps 737 mmHg 68%
    09:00 +14°C° 0 mm 3 mps 737 mmHg 62%
    10:00 +16°C° 0 mm 3 mps 737 mmHg 56%
    11:00 +17°C° 0 mm 3 mps 736 mmHg 54%
    12:00 +18°C° 0 mm 3 mps 736 mmHg 51%
    13:00 +18°C° 0 mm 3 mps 736 mmHg 49%
    14:00 +18°C° 0 mm 3 mps 735 mmHg 50%
    15:00 +18°C° 0 mm 2 mps 735 mmHg 51%
    16:00 +18°C° 0 mm 2 mps 735 mmHg 53%
    17:00 +17°C° 0 mm 2 mps 734 mmHg 58%
    18:00 +15°C° 0 mm 1 mps 734 mmHg 64%
    19:00 +14°C° 0 mm 1 mps 734 mmHg 70%
    20:00 +13°C° 0 mm 1 mps 734 mmHg 72%
    21:00 +12°C° 0 mm 1 mps 734 mmHg 74%
    22:00 +10°C° 0 mm 0 mps 734 mmHg 76%
    23:00 +10°C° 0 mm 1 mps 734 mmHg 78%

    25 May, Saturday

    Time Temperature Precipitation Wind Pressure Humidity
    00:00 +10°C° 0 mm 1 mps 734 mmHg 80%
    01:00 +9°C° 0 mm 1 mps 734 mmHg 82%
    02:00 +9°C° 0 mm 1 mps 734 mmHg 82%
    03:00 +8°C° 0 mm 1 mps 734 mmHg 83%
    04:00 +7°C° 0 mm 0 mps 734 mmHg 83%
    05:00 +10°C° 0 mm 1 mps 734 mmHg 79%
    06:00 +12°C° 0 mm 1 mps 734 mmHg 74%
    07:00 +14°C° 0 mm 1 mps 734 mmHg 69%
    08:00 +16°C° 0 mm 1 mps 734 mmHg 64%
    09:00 +18°C° 0 mm 1 mps 734 mmHg 59%
    10:00 +20°C° 0 mm 1 mps 734 mmHg 54%
    11:00 +21°C° 0 mm 1 mps 734 mmHg 52%
    12:00 +22°C° 0 mm 1 mps 734 mmHg 50%
    13:00 +22°C° 0 mm 1 mps 733 mmHg 47%
    14:00 +23°C° 0 mm 1 mps 733 mmHg 48%
    15:00 +23°C° 0 mm 1 mps 733 mmHg 48%
    16:00 +23°C° 0 mm 1 mps 733 mmHg 48%
    17:00 +21°C° 0 mm 1 mps 733 mmHg 55%
    18:00 +20°C° 0 mm 1 mps 733 mmHg 61%
    19:00 +18°C° 0 mm 1 mps 733 mmHg 68%
    20:00 +16°C° 0 mm 2 mps 733 mmHg 73%
    21:00 +15°C° 0 mm 2 mps 734 mmHg 79%
    22:00 +14°C° 0 mm 2 mps 734 mmHg 84%
    23:00 +13°C° 0 mm 3 mps 734 mmHg 88%
    Show more